Regional Weather Roundup
Issued by NWS

Home | Current Version | Previous Version | Graphics & Text | Print | Product List | Glossary On
Versions: 1 2 3 4 5 6 7 8 9 10 11 12 13 14 15 16 17 18 19 20 21 22 23 24 25 26 27 28 29 30 31 32 33 34 35 36 37 38 39 40 41 42 43 44 45 46 47 48 49 50
000
ASUS45 KSLC 180510
RWRUT

UTAH REGIONAL WEATHER ROUNDUP
NATIONAL WEATHER SERVICE SALT LAKE CITY UT
1100 PM MDT FRI APR 17 2015

UTZ001>011-023>025-180600-

NORTHERN UTAH

CITY           SKY/WX    TMP DP  RH WIND       PRES   REMARKS
BRIGHAM CITY     N/A     52  39  60 NW5       30.04S
HILL AFB         N/A     52  37  56 E17G25    30.05R
LOGAN          CLEAR     53  36  52 S13       30.04R
OGDEN            N/A     53  36  52 E10       30.04R
PROVO AIRPORT    N/A     55  36  47 NE3       30.05S
SALT LAKE CITY MOCLDY    54  37  52 SE10      30.04R
VERNAL         MOCLDY    46  32  58 NE10      30.05R
WENDOVER         N/A     55  19  24 W6        30.06R
HEBER CITY     MOCLDY    45  36  70 NE10      30.07F
WEST JORDAN    MOCLDY    54  37  54 N10       30.06R

$$

UTZ012>022-026-027-180600-

SOUTHERN/CENTRAL UTAH

CITY           SKY/WX    TMP DP  RH WIND       PRES   REMARKS
BLANDING       CLOUDY    34  34  99 NE3       30.10F
BRYCE CANYON   CLOUDY    41  27  57 N13       30.10S
CEDAR CITY       N/A     41  28  60 N6        30.07S
DELTA            N/A     47  30  50 SE5       30.04F
HANKSVILLE     MOCLDY    43  41  93 CALM      30.05F
MILFORD          N/A     43  31  62 SW5       30.06R
MOAB/CYNLANDS  LGT RAIN  41  40  96 NE6       30.03R
PRICE          MOCLDY    41  33  73 N5        30.03
ST GEORGE        N/A     59  27  29 CALM      30.02R
KANAB            N/A     46  32  57 W3        30.10R

$$

REGIONAL REPORTS     COLORADO/ARIZONA

CITY           SKY/WX    TMP DP  RH WIND       PRES   REMARKS
CRAIG, CO      MOCLDY    35  32  88 CALM      30.03R
GRAND JUNCTION MOCLDY    35  35 100 CALM      30.05S
RIFLE          CLOUDY    36  34  92 SE3       30.07R
MONTROSE       LGT SNOW  33  32  96 CALM      30.06S FOG
CORTEZ         LGT SNOW  33  33 100 CALM      30.04F FOG
PAGE, AZ       CLOUDY    58  31  35 N9        30.01R
GRAND CANYON     N/A     33  26  75 CALM      30.12R
KINGMAN          N/A     50  22  33 SE8       30.02S
FLAGSTAFF        N/A     32  24  72 CALM      30.12S

$$

REGIONAL REPORTS    NEVADA/IDAHO/WYOMING

CITY           SKY/WX    TMP DP  RH WIND       PRES   REMARKS
LAS VEGAS, NV    N/A     72  14  11 S13       29.89R
ELY              N/A     44  11  26 W10       30.12R
ELKO             N/A     51  18  27 CALM      30.10R
POCATELLO, ID  CLEAR     54  26  34 SW14      30.05S
BURLEY           N/A     43  26  51 S8        30.03S
EVANSTON, WY   MOCLDY    39  31  72 E14       30.13S WCI  31
ROCK SPRINGS   CLOUDY    35  33  92 NE17      30.08F WCI  25
KEMMERER         N/A     34  32  93 S3        30.15S

$$


USA.gov is the U.S. government's official web portal to all federal, state and local government web resources and services.